Year,Month,Day,Hour,Minute,Value (Times are PST for temperature in C)
2017,05,27,00,00,13.00
2017,05,27,00,01,13.00
2017,05,27,00,02,13.10
2017,05,27,00,03,13.10
2017,05,27,00,04,13.10
2017,05,27,00,05,13.10
2017,05,27,00,06,13.10
2017,05,27,00,07,13.10
2017,05,27,00,08,13.10
2017,05,27,00,09,13.10
2017,05,27,00,10,13.10
2017,05,27,00,11,13.10
2017,05,27,00,12,13.00
2017,05,27,00,13,13.00
2017,05,27,00,14,13.00
2017,05,27,00,15,13.00
2017,05,27,00,16,13.00
2017,05,27,00,17,12.90
2017,05,27,00,18,12.90
2017,05,27,00,19,12.90
2017,05,27,00,20,12.90
2017,05,27,00,21,12.90
2017,05,27,00,22,12.90
2017,05,27,00,23,12.90
2017,05,27,00,24,12.90
2017,05,27,00,25,12.90
2017,05,27,00,26,12.80
2017,05,27,00,27,12.80
2017,05,27,00,28,12.80
2017,05,27,00,29,12.80
2017,05,27,00,30,12.80
2017,05,27,00,31,12.70
2017,05,27,00,32,12.70
2017,05,27,00,33,12.70
2017,05,27,00,34,12.70
2017,05,27,00,35,12.70
2017,05,27,00,36,12.60
2017,05,27,00,37,12.60
2017,05,27,00,38,12.60
2017,05,27,00,39,12.60
2017,05,27,00,40,12.50
2017,05,27,00,41,12.50
2017,05,27,00,42,12.50
2017,05,27,00,43,12.50
2017,05,27,00,44,12.40
2017,05,27,00,45,12.40
2017,05,27,00,46,12.40
2017,05,27,00,47,12.40
2017,05,27,00,48,12.40
2017,05,27,00,49,12.40
2017,05,27,00,50,12.40
2017,05,27,00,51,12.40
2017,05,27,00,52,12.40
2017,05,27,00,53,12.30
2017,05,27,00,54,12.30
2017,05,27,00,55,12.30
2017,05,27,00,56,12.30
2017,05,27,00,57,12.30
2017,05,27,00,58,12.30
2017,05,27,00,59,12.30
2017,05,27,01,00,12.30
2017,05,27,01,01,12.20
2017,05,27,01,02,12.20
2017,05,27,01,03,12.20
2017,05,27,01,04,12.20
2017,05,27,01,05,12.10
2017,05,27,01,06,12.10
2017,05,27,01,07,12.10
2017,05,27,01,08,12.10
2017,05,27,01,09,12.10
2017,05,27,01,10,12.10
2017,05,27,01,11,12.00
2017,05,27,01,12,12.10
2017,05,27,01,13,12.00
2017,05,27,01,14,12.00
2017,05,27,01,15,12.00
2017,05,27,01,16,12.00
2017,05,27,01,17,12.00
2017,05,27,01,18,12.00
2017,05,27,01,19,12.00
2017,05,27,01,20,12.10
2017,05,27,01,21,12.00
2017,05,27,01,22,12.00
2017,05,27,01,23,12.00
2017,05,27,01,24,12.00
2017,05,27,01,25,12.00
2017,05,27,01,26,12.00
2017,05,27,01,27,11.90
2017,05,27,01,28,11.90
2017,05,27,01,29,11.90
2017,05,27,01,30,11.90
2017,05,27,01,31,11.80
2017,05,27,01,32,11.80
2017,05,27,01,33,11.80
2017,05,27,01,34,11.80
2017,05,27,01,35,11.80
2017,05,27,01,36,11.70
2017,05,27,01,37,11.70
2017,05,27,01,38,11.70
2017,05,27,01,39,11.70
2017,05,27,01,40,11.70
2017,05,27,01,41,11.70
2017,05,27,01,42,11.70
2017,05,27,01,43,11.70
2017,05,27,01,44,11.70
2017,05,27,01,45,11.70
2017,05,27,01,46,11.70
2017,05,27,01,47,11.70
2017,05,27,01,48,11.70
2017,05,27,01,49,11.70
2017,05,27,01,50,11.70
2017,05,27,01,51,11.70
2017,05,27,01,52,11.70
2017,05,27,01,53,11.70
2017,05,27,01,54,11.70
2017,05,27,01,55,11.70
2017,05,27,01,56,11.60
2017,05,27,01,57,11.60
2017,05,27,01,58,11.60
2017,05,27,01,59,11.50
2017,05,27,02,00,11.50
2017,05,27,02,01,11.50
2017,05,27,02,02,11.40
2017,05,27,02,03,11.40
2017,05,27,02,04,11.40
2017,05,27,02,05,11.40
2017,05,27,02,06,11.40
2017,05,27,02,07,11.30
2017,05,27,02,08,11.30
2017,05,27,02,09,11.30
2017,05,27,02,10,11.30
2017,05,27,02,11,11.30
2017,05,27,02,12,11.30
2017,05,27,02,13,11.30
2017,05,27,02,14,11.30
2017,05,27,02,15,11.30
2017,05,27,02,16,11.20
2017,05,27,02,17,11.20
2017,05,27,02,18,11.20
2017,05,27,02,19,11.20
2017,05,27,02,20,11.20
2017,05,27,02,21,11.20
2017,05,27,02,22,11.20
2017,05,27,02,23,11.20
2017,05,27,02,24,11.20
2017,05,27,02,25,11.20
2017,05,27,02,26,11.20
2017,05,27,02,27,11.20
2017,05,27,02,28,11.20
2017,05,27,02,29,11.20
2017,05,27,02,30,11.20
2017,05,27,02,31,11.20
2017,05,27,02,32,11.20
2017,05,27,02,33,11.20
2017,05,27,02,34,11.20
2017,05,27,02,35,11.20
2017,05,27,02,36,11.20
2017,05,27,02,37,11.20
2017,05,27,02,38,11.20
2017,05,27,02,39,11.20
2017,05,27,02,40,11.20
2017,05,27,02,41,11.20
2017,05,27,02,42,11.20
2017,05,27,02,43,11.20
2017,05,27,02,44,11.20
2017,05,27,02,45,11.20
2017,05,27,02,46,11.10
2017,05,27,02,47,11.10
2017,05,27,02,48,11.10
2017,05,27,02,49,11.10
2017,05,27,02,50,11.10
2017,05,27,02,51,11.10
2017,05,27,02,52,11.10
2017,05,27,02,53,11.10
2017,05,27,02,54,11.10
2017,05,27,02,55,11.00
2017,05,27,02,56,11.00
2017,05,27,02,57,11.00
2017,05,27,02,58,10.90
2017,05,27,02,59,10.90
2017,05,27,03,00,10.90
2017,05,27,03,01,10.90
2017,05,27,03,02,10.80
2017,05,27,03,03,10.80
2017,05,27,03,04,10.80
2017,05,27,03,05,10.80
2017,05,27,03,06,10.80
2017,05,27,03,07,10.80
2017,05,27,03,08,10.80
2017,05,27,03,09,10.80
2017,05,27,03,10,10.90
2017,05,27,03,11,10.80
2017,05,27,03,12,10.90
2017,05,27,03,13,10.90
2017,05,27,03,14,10.80
2017,05,27,03,15,10.80
2017,05,27,03,16,10.80
2017,05,27,03,17,10.80
2017,05,27,03,18,10.80
2017,05,27,03,19,10.70
2017,05,27,03,20,10.70
2017,05,27,03,21,10.70
2017,05,27,03,22,10.70
2017,05,27,03,23,10.70
2017,05,27,03,24,10.70
2017,05,27,03,25,10.60
2017,05,27,03,26,10.60
2017,05,27,03,27,10.60
2017,05,27,03,28,10.60
2017,05,27,03,29,10.60
2017,05,27,03,30,10.60
2017,05,27,03,31,10.60
2017,05,27,03,32,10.60
2017,05,27,03,33,10.60
2017,05,27,03,34,10.50
2017,05,27,03,35,10.50
2017,05,27,03,36,10.50
2017,05,27,03,37,10.50
2017,05,27,03,38,10.50
2017,05,27,03,39,10.50
2017,05,27,03,40,10.50
2017,05,27,03,41,10.50
2017,05,27,03,42,10.50
2017,05,27,03,43,10.50
2017,05,27,03,44,10.50
2017,05,27,03,45,10.50
2017,05,27,03,46,10.50
2017,05,27,03,47,10.50
2017,05,27,03,48,10.50
2017,05,27,03,49,10.50
2017,05,27,03,50,10.50
2017,05,27,03,51,10.50
2017,05,27,03,52,10.50
2017,05,27,03,53,10.50
2017,05,27,03,54,10.50
2017,05,27,03,55,10.50
2017,05,27,03,56,10.50
2017,05,27,03,57,10.40
2017,05,27,03,58,10.50
2017,05,27,03,59,10.40
2017,05,27,04,00,10.50
2017,05,27,04,01,10.40
2017,05,27,04,02,10.40
2017,05,27,04,03,10.50
2017,05,27,04,04,10.50
2017,05,27,04,05,10.50
2017,05,27,04,06,10.50
2017,05,27,04,07,10.50
2017,05,27,04,08,10.50
2017,05,27,04,09,10.50
2017,05,27,04,10,10.50
2017,05,27,04,11,10.40
2017,05,27,04,12,10.40
2017,05,27,04,13,10.40
2017,05,27,04,14,10.40
2017,05,27,04,15,10.40
2017,05,27,04,16,10.40
2017,05,27,04,17,10.40
2017,05,27,04,18,10.30
2017,05,27,04,19,10.30
2017,05,27,04,20,10.30
2017,05,27,04,21,10.30
2017,05,27,04,22,10.30
2017,05,27,04,23,10.30
2017,05,27,04,24,10.30
2017,05,27,04,25,10.30
2017,05,27,04,26,10.30
2017,05,27,04,27,10.30
2017,05,27,04,28,10.20
2017,05,27,04,29,10.20
2017,05,27,04,30,10.20
2017,05,27,04,31,10.20
2017,05,27,04,32,10.20
2017,05,27,04,33,10.20
2017,05,27,04,34,10.10
2017,05,27,04,35,10.10
2017,05,27,04,36,10.10
2017,05,27,04,37,10.10
2017,05,27,04,38,10.10
2017,05,27,04,39,10.10
2017,05,27,04,40,10.10
2017,05,27,04,41,10.10
2017,05,27,04,42,10.10
2017,05,27,04,43,10.10
2017,05,27,04,44,10.10
2017,05,27,04,45,10.10
2017,05,27,04,46,10.10
2017,05,27,04,47,10.00
2017,05,27,04,48,10.00
2017,05,27,04,49,10.00
2017,05,27,04,50,9.90
2017,05,27,04,51,9.90
2017,05,27,04,52,9.90
2017,05,27,04,53,9.90
2017,05,27,04,54,9.90
2017,05,27,04,55,9.90
2017,05,27,04,56,9.80
2017,05,27,04,57,9.80
2017,05,27,04,58,9.80
2017,05,27,04,59,9.80
2017,05,27,05,00,9.80
2017,05,27,05,01,9.80
2017,05,27,05,02,9.80
2017,05,27,05,03,9.80
2017,05,27,05,04,9.80
2017,05,27,05,05,9.80
2017,05,27,05,06,9.80
2017,05,27,05,07,9.80
2017,05,27,05,08,9.80
2017,05,27,05,09,9.80
2017,05,27,05,10,9.80
2017,05,27,05,11,9.80
2017,05,27,05,12,9.80
2017,05,27,05,13,9.80
2017,05,27,05,14,9.80
2017,05,27,05,15,9.80
2017,05,27,05,16,9.80
2017,05,27,05,17,9.80
2017,05,27,05,18,9.80
2017,05,27,05,19,9.80
2017,05,27,05,20,9.80
2017,05,27,05,21,9.80
2017,05,27,05,22,9.80
2017,05,27,05,23,9.80
2017,05,27,05,24,9.90
2017,05,27,05,25,9.90
2017,05,27,05,26,9.90
2017,05,27,05,27,9.90
2017,05,27,05,28,9.90
2017,05,27,05,29,9.90
2017,05,27,05,30,9.90
2017,05,27,05,31,9.90
2017,05,27,05,32,9.90
2017,05,27,05,33,9.90
2017,05,27,05,34,9.90
2017,05,27,05,35,9.90
2017,05,27,05,36,9.90
2017,05,27,05,37,9.90
2017,05,27,05,38,9.90
2017,05,27,05,39,9.90
2017,05,27,05,40,9.90
2017,05,27,05,41,9.90
2017,05,27,05,42,9.90
2017,05,27,05,43,9.90
2017,05,27,05,44,9.90
2017,05,27,05,45,9.90
2017,05,27,05,46,9.90
2017,05,27,05,47,9.90
2017,05,27,05,48,10.00
2017,05,27,05,49,10.00
2017,05,27,05,50,10.00
2017,05,27,05,51,10.00
2017,05,27,05,52,10.00
2017,05,27,05,53,10.00
2017,05,27,05,54,10.00
2017,05,27,05,55,10.00
2017,05,27,05,56,10.00
2017,05,27,05,57,10.10
2017,05,27,05,58,10.10
2017,05,27,05,59,10.10
2017,05,27,06,00,10.10
2017,05,27,06,01,10.10
2017,05,27,06,02,10.10
2017,05,27,06,03,10.10
2017,05,27,06,04,10.10
2017,05,27,06,05,10.10
2017,05,27,06,06,10.10
2017,05,27,06,07,10.10
2017,05,27,06,08,10.10
2017,05,27,06,09,10.10
2017,05,27,06,10,10.10
2017,05,27,06,11,10.10
2017,05,27,06,12,10.10
2017,05,27,06,13,10.10
2017,05,27,06,14,10.10
2017,05,27,06,15,10.20
2017,05,27,06,16,10.20
2017,05,27,06,17,10.20
2017,05,27,06,18,10.20
2017,05,27,06,19,10.20
2017,05,27,06,20,10.20
2017,05,27,06,21,10.20
2017,05,27,06,22,10.30
2017,05,27,06,23,10.30
2017,05,27,06,24,10.30
2017,05,27,06,25,10.30
2017,05,27,06,26,10.30
2017,05,27,06,27,10.30
2017,05,27,06,28,10.30
2017,05,27,06,29,10.40
2017,05,27,06,30,10.40
2017,05,27,06,31,10.40
2017,05,27,06,32,10.40
2017,05,27,06,33,10.40
2017,05,27,06,34,10.50
2017,05,27,06,35,10.50
2017,05,27,06,36,10.50
2017,05,27,06,37,10.50
2017,05,27,06,38,10.60
2017,05,27,06,39,10.60
2017,05,27,06,40,10.60
2017,05,27,06,41,10.70
2017,05,27,06,42,10.70
2017,05,27,06,43,10.70
2017,05,27,06,44,10.70
2017,05,27,06,45,10.70
2017,05,27,06,46,10.80
2017,05,27,06,47,10.80
2017,05,27,06,48,10.80
2017,05,27,06,49,10.80
2017,05,27,06,50,10.80
2017,05,27,06,51,10.90
2017,05,27,06,52,11.00
2017,05,27,06,53,11.00
2017,05,27,06,54,11.10
2017,05,27,06,55,11.20
2017,05,27,06,56,11.20
2017,05,27,06,57,11.20
2017,05,27,06,58,11.30
2017,05,27,06,59,11.30
2017,05,27,07,00,11.40
2017,05,27,07,01,11.40
2017,05,27,07,02,11.50
2017,05,27,07,03,11.50
2017,05,27,07,04,11.60
2017,05,27,07,05,11.70
2017,05,27,07,06,11.70
2017,05,27,07,07,11.80
2017,05,27,07,08,11.90
2017,05,27,07,09,11.90
2017,05,27,07,10,12.00
2017,05,27,07,11,12.00
2017,05,27,07,12,12.10
2017,05,27,07,13,12.20
2017,05,27,07,14,12.20
2017,05,27,07,15,12.30
2017,05,27,07,16,12.40
2017,05,27,07,17,12.40
2017,05,27,07,18,12.50
2017,05,27,07,19,12.60
2017,05,27,07,20,12.60
2017,05,27,07,21,12.70
2017,05,27,07,22,12.80
2017,05,27,07,23,12.80
2017,05,27,07,24,12.90
2017,05,27,07,25,13.00
2017,05,27,07,26,13.00
2017,05,27,07,27,13.10
2017,05,27,07,28,13.20
2017,05,27,07,29,13.30
2017,05,27,07,30,13.40
2017,05,27,07,31,13.50
2017,05,27,07,32,13.60
2017,05,27,07,33,13.70
2017,05,27,07,34,13.80
2017,05,27,07,35,13.80
2017,05,27,07,36,13.90
2017,05,27,07,37,13.90
2017,05,27,07,38,13.90
2017,05,27,07,39,14.00
2017,05,27,07,40,14.10
2017,05,27,07,41,14.20
2017,05,27,07,42,14.20
2017,05,27,07,43,14.30
2017,05,27,07,44,14.40
2017,05,27,07,45,14.50
2017,05,27,07,46,14.50
2017,05,27,07,47,14.60
2017,05,27,07,48,14.70
2017,05,27,07,49,14.70
2017,05,27,07,50,14.80
2017,05,27,07,51,14.80
2017,05,27,07,52,14.80
2017,05,27,07,53,14.90
2017,05,27,07,54,14.90
2017,05,27,07,55,15.00
2017,05,27,07,56,15.10
2017,05,27,07,57,15.10
2017,05,27,07,58,15.20
2017,05,27,07,59,15.20
2017,05,27,08,00,15.30
2017,05,27,08,01,15.40
2017,05,27,08,02,15.40
2017,05,27,08,03,15.50
2017,05,27,08,04,15.60
2017,05,27,08,05,15.70
2017,05,27,08,06,15.80
2017,05,27,08,07,15.90
2017,05,27,08,08,16.00
2017,05,27,08,09,16.00
2017,05,27,08,10,16.10
2017,05,27,08,11,16.10
2017,05,27,08,12,16.20
2017,05,27,08,13,16.30
2017,05,27,08,14,16.30
2017,05,27,08,15,16.40
2017,05,27,08,16,16.40
2017,05,27,08,17,16.50
2017,05,27,08,18,16.60
2017,05,27,08,19,16.60
2017,05,27,08,20,16.70
2017,05,27,08,21,16.80
2017,05,27,08,22,16.80
2017,05,27,08,23,16.90
2017,05,27,08,24,17.00
2017,05,27,08,25,17.00
2017,05,27,08,26,17.10
2017,05,27,08,27,17.10
2017,05,27,08,28,17.20
2017,05,27,08,29,17.20
2017,05,27,08,30,17.30
2017,05,27,08,31,17.30
2017,05,27,08,32,17.40
2017,05,27,08,33,17.50
2017,05,27,08,34,17.60
2017,05,27,08,35,17.70
2017,05,27,08,36,17.70
2017,05,27,08,37,17.80
2017,05,27,08,38,17.80
2017,05,27,08,39,17.80
2017,05,27,08,40,17.90
2017,05,27,08,41,18.00
2017,05,27,08,42,18.10
2017,05,27,08,43,18.10
2017,05,27,08,44,18.20
2017,05,27,08,45,18.20
2017,05,27,08,46,18.30
2017,05,27,08,47,18.40
2017,05,27,08,48,18.50
2017,05,27,08,49,18.60
2017,05,27,08,50,18.60
2017,05,27,08,51,18.70
2017,05,27,08,52,18.70
2017,05,27,08,53,18.80
2017,05,27,08,54,18.80
2017,05,27,08,55,18.80
2017,05,27,08,56,18.80
2017,05,27,08,57,18.80
2017,05,27,08,58,18.80
2017,05,27,08,59,18.80
2017,05,27,09,00,18.70
2017,05,27,09,01,18.70
2017,05,27,09,02,18.70
2017,05,27,09,03,18.70
2017,05,27,09,04,18.80
2017,05,27,09,05,18.80
2017,05,27,09,06,18.80
2017,05,27,09,07,18.80
2017,05,27,09,08,18.80
2017,05,27,09,09,18.70
2017,05,27,09,10,18.70
2017,05,27,09,11,18.70
2017,05,27,09,12,18.70
2017,05,27,09,13,18.70
2017,05,27,09,14,18.80
2017,05,27,09,15,18.80
2017,05,27,09,16,18.70
2017,05,27,09,17,18.80
2017,05,27,09,18,18.80
2017,05,27,09,19,18.80
2017,05,27,09,20,18.90
2017,05,27,09,21,18.90
2017,05,27,09,22,18.90
2017,05,27,09,23,19.00
2017,05,27,09,24,19.10
2017,05,27,09,25,19.20
2017,05,27,09,26,19.30
2017,05,27,09,27,19.30
2017,05,27,09,28,19.30
2017,05,27,09,29,19.30
2017,05,27,09,30,19.30
2017,05,27,09,31,19.40
2017,05,27,09,32,19.50
2017,05,27,09,33,19.60
2017,05,27,09,34,19.60
2017,05,27,09,35,19.70
2017,05,27,09,36,19.80
2017,05,27,09,37,19.90
2017,05,27,09,38,19.90
2017,05,27,09,39,19.90
2017,05,27,09,40,19.90
2017,05,27,09,41,19.90
2017,05,27,09,42,20.00
2017,05,27,09,43,20.00
2017,05,27,09,44,20.00
2017,05,27,09,45,20.00
2017,05,27,09,46,20.00
2017,05,27,09,47,19.90
2017,05,27,09,48,19.90
2017,05,27,09,49,19.90
2017,05,27,09,50,20.00
2017,05,27,09,51,20.10
2017,05,27,09,52,20.20
2017,05,27,09,53,20.20
2017,05,27,09,54,20.30
2017,05,27,09,55,20.40
2017,05,27,09,56,20.50
2017,05,27,09,57,20.60
2017,05,27,09,58,20.70
2017,05,27,09,59,20.80
2017,05,27,10,00,20.80
2017,05,27,10,01,20.90
2017,05,27,10,02,20.90
2017,05,27,10,03,20.80
2017,05,27,10,04,20.70
2017,05,27,10,05,20.60
2017,05,27,10,06,20.70
2017,05,27,10,07,20.70
2017,05,27,10,08,20.80
2017,05,27,10,09,20.80
2017,05,27,10,10,20.90
2017,05,27,10,11,20.90
2017,05,27,10,12,20.90
2017,05,27,10,13,21.00
2017,05,27,10,14,21.10
2017,05,27,10,15,21.10
2017,05,27,10,16,21.10
2017,05,27,10,17,21.20
2017,05,27,10,18,21.30
2017,05,27,10,19,21.30
2017,05,27,10,20,21.40
2017,05,27,10,21,21.40
2017,05,27,10,22,21.40
2017,05,27,10,23,21.30
2017,05,27,10,24,21.30
2017,05,27,10,25,21.40
2017,05,27,10,26,21.50
2017,05,27,10,27,21.50
2017,05,27,10,28,21.60
2017,05,27,10,29,21.60
2017,05,27,10,30,21.50
2017,05,27,10,31,21.40
2017,05,27,10,32,21.20
2017,05,27,10,33,21.10
2017,05,27,10,34,21.00
2017,05,27,10,35,20.90
2017,05,27,10,36,20.90
2017,05,27,10,37,21.10
2017,05,27,10,38,21.30
2017,05,27,10,39,21.40
2017,05,27,10,40,21.50
2017,05,27,10,41,21.60
2017,05,27,10,42,21.60
2017,05,27,10,43,21.70
2017,05,27,10,44,21.80
2017,05,27,10,45,21.80
2017,05,27,10,46,21.90
2017,05,27,10,47,21.90
2017,05,27,10,48,21.90
2017,05,27,10,49,21.90
2017,05,27,10,50,22.00
2017,05,27,10,51,22.00
2017,05,27,10,52,22.10
2017,05,27,10,53,22.20
2017,05,27,10,54,22.20
2017,05,27,10,55,22.20
2017,05,27,10,56,22.30
2017,05,27,10,57,22.40
2017,05,27,10,58,22.40
2017,05,27,10,59,22.50
2017,05,27,11,00,22.60
2017,05,27,11,01,22.60
2017,05,27,11,02,22.60
2017,05,27,11,03,22.70
2017,05,27,11,04,22.70
2017,05,27,11,05,22.70
2017,05,27,11,06,22.70
2017,05,27,11,07,22.80
2017,05,27,11,08,22.80
2017,05,27,11,09,22.80
2017,05,27,11,10,22.80
2017,05,27,11,11,22.90
2017,05,27,11,12,23.10
2017,05,27,11,13,23.20
2017,05,27,11,14,23.20
2017,05,27,11,15,23.10
2017,05,27,11,16,23.10
2017,05,27,11,17,23.10
2017,05,27,11,18,23.10
2017,05,27,11,19,23.10
2017,05,27,11,20,23.20
2017,05,27,11,21,23.10
2017,05,27,11,22,23.00
2017,05,27,11,23,22.90
2017,05,27,11,24,22.80
2017,05,27,11,25,22.80
2017,05,27,11,26,22.70
2017,05,27,11,27,22.70
2017,05,27,11,28,22.70
2017,05,27,11,29,22.70
2017,05,27,11,30,22.80
2017,05,27,11,31,22.80
2017,05,27,11,32,22.80
2017,05,27,11,33,22.80
2017,05,27,11,34,22.90
2017,05,27,11,35,22.90
2017,05,27,11,36,22.80
2017,05,27,11,37,22.70
2017,05,27,11,38,22.70
2017,05,27,11,39,22.80
2017,05,27,11,40,22.80
2017,05,27,11,41,22.70
2017,05,27,11,42,22.70
2017,05,27,11,43,22.70
2017,05,27,11,44,22.80
2017,05,27,11,45,22.90
2017,05,27,11,46,23.00
2017,05,27,11,47,23.10
2017,05,27,11,48,23.00
2017,05,27,11,49,23.00
2017,05,27,11,50,22.90
2017,05,27,11,51,22.90
2017,05,27,11,52,22.90
2017,05,27,11,53,22.80
2017,05,27,11,54,22.80
2017,05,27,11,55,22.80
2017,05,27,11,56,22.80
2017,05,27,11,57,22.70
2017,05,27,11,58,22.70
2017,05,27,11,59,22.70
2017,05,27,12,00,22.70
2017,05,27,12,01,22.80
2017,05,27,12,02,22.80
2017,05,27,12,03,22.80
2017,05,27,12,04,22.80
2017,05,27,12,05,22.80
2017,05,27,12,06,22.80
2017,05,27,12,07,22.80
2017,05,27,12,08,22.80
2017,05,27,12,09,22.80
2017,05,27,12,10,22.80
2017,05,27,12,11,22.80
2017,05,27,12,12,22.80
2017,05,27,12,13,22.60
2017,05,27,12,14,22.50
2017,05,27,12,15,22.50
2017,05,27,12,16,22.50
2017,05,27,12,17,22.60
2017,05,27,12,18,22.80
2017,05,27,12,19,22.80
2017,05,27,12,20,22.90
2017,05,27,12,21,23.00
2017,05,27,12,22,23.10
2017,05,27,12,23,23.10
2017,05,27,12,24,23.20
2017,05,27,12,25,23.20
2017,05,27,12,26,23.00
2017,05,27,12,27,22.90
2017,05,27,12,28,22.90
2017,05,27,12,29,22.90
2017,05,27,12,30,22.90
2017,05,27,12,31,22.90
2017,05,27,12,32,22.90
2017,05,27,12,33,22.90
2017,05,27,12,34,22.80
2017,05,27,12,35,22.80
2017,05,27,12,36,22.80
2017,05,27,12,37,23.00
2017,05,27,12,38,23.10
2017,05,27,12,39,23.20
2017,05,27,12,40,23.20
2017,05,27,12,41,23.20
2017,05,27,12,42,23.20
2017,05,27,12,43,23.10
2017,05,27,12,44,23.10
2017,05,27,12,45,23.00
2017,05,27,12,46,23.00
2017,05,27,12,47,23.00
2017,05,27,12,48,23.10
2017,05,27,12,49,23.10
2017,05,27,12,50,23.10
2017,05,27,12,51,23.10
2017,05,27,12,52,23.00
2017,05,27,12,53,23.10
2017,05,27,12,54,23.30
2017,05,27,12,55,23.30
2017,05,27,12,56,23.50
2017,05,27,12,57,23.60
2017,05,27,12,58,23.60
2017,05,27,12,59,23.70
2017,05,27,13,00,23.70
2017,05,27,13,01,23.60
2017,05,27,13,02,23.60
2017,05,27,13,03,23.60
2017,05,27,13,04,23.70
2017,05,27,13,05,23.70
2017,05,27,13,06,23.70
2017,05,27,13,07,23.60
2017,05,27,13,08,23.50
2017,05,27,13,09,23.40
2017,05,27,13,10,23.50
2017,05,27,13,11,23.60
2017,05,27,13,12,23.60
2017,05,27,13,13,23.70
2017,05,27,13,14,23.70
2017,05,27,13,15,23.60
2017,05,27,13,16,23.40
2017,05,27,13,17,23.30
2017,05,27,13,18,23.20
2017,05,27,13,19,23.20
2017,05,27,13,20,23.20
2017,05,27,13,21,23.20
2017,05,27,13,22,23.30
2017,05,27,13,23,23.30
2017,05,27,13,24,23.40
2017,05,27,13,25,23.30
2017,05,27,13,26,23.30
2017,05,27,13,27,23.20
2017,05,27,13,28,23.20
2017,05,27,13,29,23.20
2017,05,27,13,30,23.20
2017,05,27,13,31,23.30
2017,05,27,13,32,23.30
2017,05,27,13,33,23.40
2017,05,27,13,34,23.40
2017,05,27,13,35,23.40
2017,05,27,13,36,23.30
2017,05,27,13,37,23.30
2017,05,27,13,38,23.40
2017,05,27,13,39,23.50
2017,05,27,13,40,23.70
2017,05,27,13,41,23.80
2017,05,27,13,42,23.80
2017,05,27,13,43,23.80
2017,05,27,13,44,23.80
2017,05,27,13,45,23.70
2017,05,27,13,46,23.70
2017,05,27,13,47,23.70
2017,05,27,13,48,23.70
2017,05,27,13,49,23.80
2017,05,27,13,50,23.80
2017,05,27,13,51,23.90
2017,05,27,13,52,23.90
2017,05,27,13,53,24.00
2017,05,27,13,54,24.20
2017,05,27,13,55,24.30
2017,05,27,13,56,24.30
2017,05,27,13,57,24.40
2017,05,27,13,58,24.40
2017,05,27,13,59,24.30
2017,05,27,14,00,24.30
2017,05,27,14,01,24.20
2017,05,27,14,02,24.00
2017,05,27,14,03,23.80
2017,05,27,14,04,23.80
2017,05,27,14,05,23.80
2017,05,27,14,06,23.90
2017,05,27,14,07,24.00
2017,05,27,14,08,23.90
2017,05,27,14,09,23.80
2017,05,27,14,10,23.80
2017,05,27,14,11,23.80
2017,05,27,14,12,23.90
2017,05,27,14,13,24.10
2017,05,27,14,14,24.30
2017,05,27,14,15,24.40
2017,05,27,14,16,24.40
2017,05,27,14,17,24.40
2017,05,27,14,18,24.40
2017,05,27,14,19,24.40
2017,05,27,14,20,24.40
2017,05,27,14,21,24.40
2017,05,27,14,22,24.20
2017,05,27,14,23,24.10
2017,05,27,14,24,23.90
2017,05,27,14,25,23.70
2017,05,27,14,26,23.70
2017,05,27,14,27,23.70
2017,05,27,14,28,23.70
2017,05,27,14,29,23.80
2017,05,27,14,30,24.00
2017,05,27,14,31,24.10
2017,05,27,14,32,24.20
2017,05,27,14,33,24.30
2017,05,27,14,34,24.40
2017,05,27,14,35,24.50
2017,05,27,14,36,24.50
2017,05,27,14,37,24.60
2017,05,27,14,38,24.60
2017,05,27,14,39,24.70
2017,05,27,14,40,24.70
2017,05,27,14,41,24.60
2017,05,27,14,42,24.60
2017,05,27,14,43,24.60
2017,05,27,14,44,24.60
2017,05,27,14,45,24.60
2017,05,27,14,46,24.70
2017,05,27,14,47,24.70
2017,05,27,14,48,24.70
2017,05,27,14,49,24.80
2017,05,27,14,50,24.90
2017,05,27,14,51,24.90
2017,05,27,14,52,24.90
2017,05,27,14,53,24.90
2017,05,27,14,54,24.90
2017,05,27,14,55,24.90
2017,05,27,14,56,25.00
2017,05,27,14,57,25.20
2017,05,27,14,58,25.20
2017,05,27,14,59,25.30
2017,05,27,15,00,25.40
2017,05,27,15,01,25.50
2017,05,27,15,02,25.50
2017,05,27,15,03,25.40
2017,05,27,15,04,25.30
2017,05,27,15,05,25.20
2017,05,27,15,06,25.10
2017,05,27,15,07,25.20
2017,05,27,15,08,25.20
2017,05,27,15,09,25.20
2017,05,27,15,10,25.20
2017,05,27,15,11,25.20
2017,05,27,15,12,25.20
2017,05,27,15,13,25.20
2017,05,27,15,14,25.10
2017,05,27,15,15,25.10
2017,05,27,15,16,25.00
2017,05,27,15,17,24.90
2017,05,27,15,18,24.80
2017,05,27,15,19,24.80
2017,05,27,15,20,24.90
2017,05,27,15,21,24.90
2017,05,27,15,22,24.90
2017,05,27,15,23,24.80
2017,05,27,15,24,24.90
2017,05,27,15,25,25.00
2017,05,27,15,26,25.10
2017,05,27,15,27,25.10
2017,05,27,15,28,25.10
2017,05,27,15,29,25.10
2017,05,27,15,30,25.00
2017,05,27,15,31,24.90
2017,05,27,15,32,24.90
2017,05,27,15,33,25.00
2017,05,27,15,34,25.00
2017,05,27,15,35,25.00
2017,05,27,15,36,25.10
2017,05,27,15,37,25.20
2017,05,27,15,38,25.20
2017,05,27,15,39,25.20
2017,05,27,15,40,25.20
2017,05,27,15,41,25.30
2017,05,27,15,42,25.30
2017,05,27,15,43,25.40
2017,05,27,15,44,25.40
2017,05,27,15,45,25.40
2017,05,27,15,46,25.40
2017,05,27,15,47,25.30
2017,05,27,15,48,25.30
2017,05,27,15,49,25.40
2017,05,27,15,50,25.50
2017,05,27,15,51,25.60
2017,05,27,15,52,25.50
2017,05,27,15,53,25.40
2017,05,27,15,54,25.40
2017,05,27,15,55,25.30
2017,05,27,15,56,25.30
2017,05,27,15,57,25.30
2017,05,27,15,58,25.30
2017,05,27,15,59,25.30
2017,05,27,16,00,25.30
2017,05,27,16,01,25.30
2017,05,27,16,02,25.40
2017,05,27,16,03,25.40
2017,05,27,16,04,25.40
2017,05,27,16,05,25.50
2017,05,27,16,06,25.50
2017,05,27,16,07,25.50
2017,05,27,16,08,25.50
2017,05,27,16,09,25.50
2017,05,27,16,10,25.60
2017,05,27,16,11,25.60
2017,05,27,16,12,25.60
2017,05,27,16,13,25.60
2017,05,27,16,14,25.60
2017,05,27,16,15,25.60
2017,05,27,16,16,25.60
2017,05,27,16,17,25.60
2017,05,27,16,18,25.50
2017,05,27,16,19,25.60
2017,05,27,16,20,25.60
2017,05,27,16,21,25.70
2017,05,27,16,22,25.80
2017,05,27,16,23,25.80
2017,05,27,16,24,25.80
2017,05,27,16,25,25.80
2017,05,27,16,26,25.80
2017,05,27,16,27,25.80
2017,05,27,16,28,25.80
2017,05,27,16,29,25.90
2017,05,27,16,30,25.90
2017,05,27,16,31,25.90
2017,05,27,16,32,25.90
2017,05,27,16,33,25.90
2017,05,27,16,34,25.90
2017,05,27,16,35,25.90
2017,05,27,16,36,25.90
2017,05,27,16,37,25.90
2017,05,27,16,38,25.90
2017,05,27,16,39,25.80
2017,05,27,16,40,25.80
2017,05,27,16,41,25.80
2017,05,27,16,42,25.80
2017,05,27,16,43,25.80
2017,05,27,16,44,25.90
2017,05,27,16,45,25.80
2017,05,27,16,46,25.90
2017,05,27,16,47,25.90
2017,05,27,16,48,25.90
2017,05,27,16,49,26.00
2017,05,27,16,50,26.00
2017,05,27,16,51,26.00
2017,05,27,16,52,26.10
2017,05,27,16,53,26.10
2017,05,27,16,54,26.10
2017,05,27,16,55,26.10
2017,05,27,16,56,26.10
2017,05,27,16,57,26.20
2017,05,27,16,58,26.20
2017,05,27,16,59,26.30
2017,05,27,17,00,26.20
2017,05,27,17,01,26.20
2017,05,27,17,02,26.20
2017,05,27,17,03,26.20
2017,05,27,17,04,26.10
2017,05,27,17,05,26.10
2017,05,27,17,06,26.10
2017,05,27,17,07,26.20
2017,05,27,17,08,26.20
2017,05,27,17,09,26.20
2017,05,27,17,10,26.20
2017,05,27,17,11,26.30
2017,05,27,17,12,26.30
2017,05,27,17,13,26.30
2017,05,27,17,14,26.30
2017,05,27,17,15,26.30
2017,05,27,17,16,26.30
2017,05,27,17,17,26.30
2017,05,27,17,18,26.40
2017,05,27,17,19,26.40
2017,05,27,17,20,26.40
2017,05,27,17,21,26.40